THORAD AGENA D DEB, 4676

Orbit data source: Space-Track

THORAD AGENA D DEB, 4676 is space debris in SSO originally from a launch on Wed, 08 Apr 1970 UTC launched from the Air Force Western Test Range (AFWTR). Debris objects in space refer to the collection of defunct objects orbiting the Earth. Examples of debris include non-operational satellites, rocket bodies, and fragments generated from explosions, collisions, or faulty payload assembly.

Loading next visibility...
Identifier
4676, 1970-025AZ
Orbit
SSO
Country
Flag of USUS
Related business
Manufacturer
Unknown
Mission
Spacecraft
Bus & Motor
Unknown
Mass
Unknown
Launch date (UTC)
1970-04-08 (56 years ago)
Launch vehicle
Unknown
Launch site
Air Force Western Test Range (AFWTR)
Object type
Payload
Rocket body
Debris
Shape & HBR
Unknown shape, 0.3 m
Radar Cross Section
Medium (>0.1 m² and <1 m²)

Expand to show TLE details & history
Last TLE update: 12 hours ago

TLE from 12 hours ago
0 THORAD AGENA D DEB
1 04676U 70025AZ  26126.10306368  .00000093  00000-0  20192-3 0  9990
2 04676 100.1014 168.6385 0006562  99.9236 278.5724 13.55582976768812
Epoch: 2026-05-06T02:28Z
TLE epoch observation values (Epoch: 2026-05-06T02:28:24.701Z)
Latitude
18.12032°
Longitude
-95.75774°
Altitude
1,053.3 km
Speed
7.327 km/s
True Right ascension
11h 01m 15s
True Declination
18° 01' 23"
Sunlit
Object was in daylight at epoch
Visualization orbit readout
Latitude
Unknown
Longitude
Unknown
Altitude
Unknown
Speed
Unknown
Apparent Right ascension
Unknown
Apparent Declination
Unknown
Sunlit
N/A
Visualization observer readout
Local Sidereal Time
21:55:46
Azimuth
Unknown
Elevation
Unknown
Doppler factor
Unknown
Orbital elements
Apogee altitude
1,053.977 km
Perigee altitude
1,044.229 km
Semi-major axis
7,427.24 km
Eccentricity
0.00066
Inclination
100.1014°
RAAN
168.6385°
Arg. of periapsis
99.9236°
True anomaly
278.49804°
Mean anomaly
278.5724°
Eccentric anomaly
278.53522°
Mean motion
3.3908 °/min
Orbital period
106.17 mins
BSTAR
0.00020192
Loading maneuver chart data...
Computing Atmospheric mass density...

Documentation

Showing up to 5 results
|